When you browse on this site, cookies collect data to enhance your experience and personalize the content and advertising you see.
Visit our Privacy Policy to learn more. By continuing to use the site, you agree to this use of cookies and data.
  • In Sweden
  • List of Countries
  • For 7 days
  • Water Temperature
  • Weather Map
  • Weather Widgets
  • user-avatar
    Login

    Hourly Weather Berezova

    Today, 16 September, Monday

    Time Temperature Precipitation Wind Pressure Humidity
    00:00 +9°C° 0.1 mm 3 mps 743 mmHg 95%
    01:00 +8°C° 0.1 mm 2 mps 743 mmHg 95%
    02:00 +8°C° 0.1 mm 2 mps 743 mmHg 95%
    03:00 +7°C° 0.1 mm 2 mps 743 mmHg 95%
    04:00 +7°C° 0 mm 2 mps 743 mmHg 95%
    05:00 +7°C° 0 mm 2 mps 743 mmHg 95%
    06:00 +7°C° 0 mm 2 mps 743 mmHg 94%
    07:00 +7°C° 0 mm 2 mps 743 mmHg 94%
    08:00 +8°C° 0.2 mm 3 mps 742 mmHg 88%
    09:00 +10°C° 0.2 mm 4 mps 742 mmHg 83%
    10:00 +10°C° 0.2 mm 5 mps 742 mmHg 77%
    11:00 +12°C° 0.3 mm 5 mps 741 mmHg 74%
    12:00 +12°C° 0.3 mm 5 mps 741 mmHg 70%
    13:00 +13°C° 0.3 mm 5 mps 741 mmHg 67%
    14:00 +12°C° 0.1 mm 5 mps 740 mmHg 67%
    15:00 +12°C° 0.1 mm 5 mps 740 mmHg 67%
    16:00 +12°C° 0.1 mm 5 mps 739 mmHg 67%
    17:00 +10°C° 0.1 mm 5 mps 739 mmHg 73%
    18:00 +10°C° 0.1 mm 4 mps 739 mmHg 78%
    19:00 +8°C° 0.1 mm 4 mps 738 mmHg 83%
    20:00 +8°C° 0.3 mm 5 mps 738 mmHg 86%
    21:00 +8°C° 0.3 mm 5 mps 737 mmHg 89%
    22:00 +8°C° 0.3 mm 6 mps 736 mmHg 93%
    23:00 +8°C° 0.4 mm 6 mps 736 mmHg 93%

    Tomorrow, 17 September, Tuesday

    Time Temperature Precipitation Wind Pressure Humidity
    00:00 +8°C° 0.4 mm 6 mps 735 mmHg 93%
    01:00 +8°C° 0.4 mm 6 mps 734 mmHg 94%
    02:00 +8°C° 0.6 mm 5 mps 734 mmHg 93%
    03:00 +8°C° 0.6 mm 5 mps 734 mmHg 93%
    04:00 +8°C° 0.6 mm 5 mps 734 mmHg 93%
    05:00 +8°C° 0.2 mm 5 mps 734 mmHg 92%
    06:00 +8°C° 0.2 mm 5 mps 734 mmHg 92%
    07:00 +8°C° 0.2 mm 5 mps 734 mmHg 92%
    08:00 +9°C° 0.1 mm 6 mps 735 mmHg 89%
    09:00 +10°C° 0.1 mm 6 mps 735 mmHg 86%
    10:00 +10°C° 0.1 mm 6 mps 736 mmHg 83%
    11:00 +11°C° 0.4 mm 7 mps 736 mmHg 81%
    12:00 +11°C° 0.4 mm 7 mps 736 mmHg 79%
    13:00 +12°C° 0.4 mm 8 mps 736 mmHg 77%
    14:00 +11°C° 0.1 mm 7 mps 737 mmHg 78%
    15:00 +11°C° 0.1 mm 6 mps 737 mmHg 78%
    16:00 +12°C° 0.1 mm 5 mps 737 mmHg 79%
    17:00 +10°C° 0.2 mm 5 mps 737 mmHg 83%
    18:00 +10°C° 0.2 mm 4 mps 736 mmHg 87%
    19:00 +9°C° 0.2 mm 3 mps 736 mmHg 92%
    20:00 +8°C° 0.4 mm 4 mps 736 mmHg 92%
    21:00 +8°C° 0.4 mm 4 mps 736 mmHg 92%
    22:00 +8°C° 0.4 mm 4 mps 736 mmHg 93%
    23:00 +8°C° 0.1 mm 4 mps 736 mmHg 93%

    Day after tomorrow, 18 September, Wednesday

    Time Temperature Precipitation Wind Pressure Humidity
    00:00 +8°C° 0.1 mm 4 mps 736 mmHg 93%
    01:00 +8°C° 0.1 mm 4 mps 736 mmHg 93%
    02:00 +7°C° 0 mm 4 mps 736 mmHg 94%
    03:00 +6°C° 0 mm 4 mps 736 mmHg 94%
    04:00 +6°C° 0 mm 4 mps 736 mmHg 95%
    05:00 +6°C° 0.1 mm 4 mps 736 mmHg 95%
    06:00 +6°C° 0.1 mm 4 mps 737 mmHg 95%
    07:00 +6°C° 0.1 mm 4 mps 737 mmHg 95%
    08:00 +7°C° 0 mm 5 mps 737 mmHg 90%
    09:00 +9°C° 0 mm 5 mps 737 mmHg 85%
    10:00 +10°C° 0 mm 6 mps 737 mmHg 79%
    11:00 +10°C° 0.2 mm 6 mps 737 mmHg 77%
    12:00 +12°C° 0.2 mm 5 mps 737 mmHg 75%
    13:00 +12°C° 0.2 mm 5 mps 738 mmHg 72%
    14:00 +12°C° 0.3 mm 5 mps 738 mmHg 74%
    15:00 +12°C° 0.3 mm 5 mps 738 mmHg 75%
    16:00 +11°C° 0.3 mm 4 mps 738 mmHg 77%
    17:00 +11°C° 0.5 mm 4 mps 738 mmHg 80%
    18:00 +10°C° 0.5 mm 4 mps 738 mmHg 84%
    19:00 +8°C° 0.5 mm 4 mps 738 mmHg 87%
    20:00 +7°C° 0.1 mm 4 mps 738 mmHg 89%
    21:00 +7°C° 0.1 mm 3 mps 738 mmHg 91%
    22:00 +7°C° 0.1 mm 3 mps 738 mmHg 92%
    23:00 +7°C° 0 mm 3 mps 737 mmHg 93%

    19 September, Thursday

    Time Temperature Precipitation Wind Pressure Humidity
    00:00 +7°C° 0 mm 3 mps 737 mmHg 93%
    01:00 +7°C° 0 mm 3 mps 737 mmHg 94%
    02:00 +7°C° 0.1 mm 3 mps 737 mmHg 94%
    03:00 +7°C° 0.1 mm 2 mps 737 mmHg 95%
    04:00 +7°C° 0.1 mm 2 mps 737 mmHg 95%
    05:00 +7°C° 0 mm 2 mps 736 mmHg 95%
    06:00 +7°C° 0 mm 2 mps 735 mmHg 96%
    07:00 +7°C° 0 mm 3 mps 734 mmHg 97%
    08:00 +7°C° 1.1 mm 3 mps 733 mmHg 96%
    09:00 +7°C° 1.1 mm 4 mps 731 mmHg 95%
    10:00 +7°C° 1.1 mm 5 mps 730 mmHg 95%
    11:00 +7°C° 3.8 mm 6 mps 729 mmHg 94%
    12:00 +5°C° 3.8 mm 7 mps 727 mmHg 94%
    13:00 +5°C° 3.8 mm 8 mps 726 mmHg 94%
    14:00 +5°C° 3.8 mm 8 mps 726 mmHg 94%
    15:00 +4°C° 3.8 mm 8 mps 726 mmHg 94%
    16:00 +4°C° 3.8 mm 8 mps 727 mmHg 94%
    17:00 +5°C° 1.1 mm 8 mps 728 mmHg 92%
    18:00 +5°C° 1.1 mm 7 mps 730 mmHg 91%
    19:00 +6°C° 1.1 mm 7 mps 731 mmHg 89%
    20:00 +5°C° 0 mm 7 mps 732 mmHg 90%
    21:00 +5°C° 0 mm 6 mps 734 mmHg 91%
    22:00 +5°C° 0 mm 6 mps 735 mmHg 91%
    23:00 +4°C° 0 mm 6 mps 736 mmHg 91%

    20 September, Friday

    Time Temperature Precipitation Wind Pressure Humidity
    00:00 +5°C° 0 mm 5 mps 736 mmHg 91%
    01:00 +5°C° 0 mm 5 mps 737 mmHg 90%
    02:00 +4°C° 0 mm 4 mps 738 mmHg 91%
    03:00 +4°C° 0 mm 4 mps 739 mmHg 92%
    04:00 +3°C° 0 mm 4 mps 739 mmHg 93%
    05:00 +3°C° 0 mm 4 mps 740 mmHg 94%
    06:00 +1°C° 0 mm 4 mps 741 mmHg 94%
    07:00 +1°C° 0 mm 4 mps 741 mmHg 94%
    08:00 +3°C° 0 mm 4 mps 742 mmHg 87%
    09:00 +5°C° 0 mm 4 mps 742 mmHg 80%
    10:00 +6°C° 0 mm 4 mps 743 mmHg 73%
    11:00 +6°C° 0.1 mm 4 mps 743 mmHg 68%
    12:00 +7°C° 0.1 mm 4 mps 743 mmHg 64%
    13:00 +8°C° 0.1 mm 4 mps 744 mmHg 59%
    14:00 +8°C° 0.1 mm 4 mps 744 mmHg 60%
    15:00 +8°C° 0.1 mm 4 mps 744 mmHg 60%
    16:00 +7°C° 0.1 mm 4 mps 744 mmHg 61%
    17:00 +7°C° 0 mm 3 mps 745 mmHg 67%
    18:00 +5°C° 0 mm 3 mps 745 mmHg 73%
    19:00 +4°C° 0 mm 2 mps 745 mmHg 78%
    20:00 +4°C° 0 mm 2 mps 745 mmHg 79%
    21:00 +4°C° 0 mm 2 mps 745 mmHg 80%
    22:00 +4°C° 0 mm 2 mps 745 mmHg 81%
    23:00 +4°C° 0 mm 2 mps 746 mmHg 82%

    21 September, Saturday

    Time Temperature Precipitation Wind Pressure Humidity
    00:00 +4°C° 0 mm 2 mps 746 mmHg 84%
    01:00 +6°C° 0 mm 1 mps 746 mmHg 86%
    02:00 +5°C° 0.3 mm 1 mps 746 mmHg 89%
    03:00 +5°C° 0.3 mm 1 mps 746 mmHg 92%
    04:00 +4°C° 0.3 mm 0 mps 746 mmHg 95%
    05:00 +4°C° 0 mm 1 mps 746 mmHg 96%
    06:00 +4°C° 0 mm 1 mps 746 mmHg 96%
    07:00 +3°C° 0 mm 2 mps 746 mmHg 97%
    08:00 +4°C° 0.1 mm 2 mps 746 mmHg 91%
    09:00 +6°C° 0.1 mm 2 mps 746 mmHg 85%
    10:00 +7°C° 0.1 mm 3 mps 746 mmHg 78%
    11:00 +8°C° 0.1 mm 3 mps 746 mmHg 73%
    12:00 +8°C° 0.1 mm 2 mps 746 mmHg 67%
    13:00 +9°C° 0.1 mm 2 mps 746 mmHg 61%
    14:00 +9°C° 0 mm 2 mps 746 mmHg 60%
    15:00 +10°C° 0 mm 1 mps 745 mmHg 60%
    16:00 +10°C° 0 mm 1 mps 745 mmHg 59%
    17:00 +8°C° 0 mm 1 mps 745 mmHg 65%
    18:00 +6°C° 0 mm 0 mps 745 mmHg 70%
    19:00 +5°C° 0 mm 0 mps 744 mmHg 76%
    20:00 +5°C° 0 mm 1 mps 744 mmHg 78%
    21:00 +5°C° 0 mm 1 mps 744 mmHg 80%
    22:00 +3°C° 0 mm 2 mps 744 mmHg 82%
    23:00 +3°C° 0 mm 2 mps 744 mmHg 84%
    Show more